Regional Weather Roundup
Issued by NWS Raleigh/Durham, NC

Home | Current Version | Previous Version | Text Only | Print | Product List | Glossary On
Versions: 1 2 3 4 5 6 7 8 9 10 11 12 13 14 15 16 17 18 19 20 21 22 23 24 25 26 27 28 29 30 31 32 33 34 35 36 37 38 39 40 41 42 43 44 45 46 47 48 49 50
000
ASUS42 KRAH 271110
RWRRAH
NORTH CAROLINA WEATHER ROUNDUP
NATIONAL WEATHER SERVICE RALEIGH NC
600 AM EST FRI FEB 27 2015

NOTE: "FAIR" INDICATES FEW OR NO CLOUDS BELOW 12,000 FEET WITH NO
SIGNIFICANT WEATHER AND/OR OBSTRUCTIONS TO VISIBILITY.

NCZ001-053-055-056-065-067-271200-
WESTERN NORTH CAROLINA

CITY           SKY/WX    TMP DP  RH WIND       PRES   REMARKS
ASHEVILLE      MOCLDY    29  21  72 N9        30.20R WCI  20
JEFFERSON      FLURRIES  25  17  72 W13       30.12R WCI  13
MORGANTON      CLEAR     22  21  97 CALM      30.27R
HICKORY        MOCLDY    27  24  89 NW3       30.22R
RUTHERFORDTON  CLEAR     27  27  98 CALM      30.24R
MOUNT AIRY     CLEAR     32  25  74 N3        30.24R
BOONE          LGT SNOW  24  21  88 W10       30.13R WCI  14
$$

NCZ021-022-025-041-071-084-088-271200-
CENTRAL NORTH CAROLINA

CITY           SKY/WX    TMP DP  RH WIND       PRES   REMARKS
CHARLOTTE      MOCLDY    30  28  92 CALM      30.24R FOG
GREENSBORO     FOG       26  25  96 NW3       30.23R VSB 3/4
WINSTON-SALEM  CLEAR     27  25  92 CALM      30.24R FOG
RALEIGH-DURHAM PTCLDY    24  21  88 CALM      30.26R FOG
FORT BRAGG     PTCLDY    28  26  94 CALM      30.26R
FAYETTEVILLE   PTCLDY    29  27  92 NW3       30.26R
BURLINGTON     CLEAR     22  18  85 CALM      30.25R FOG
LAURINBURG     PTCLDY    28  26  92 CALM      30.27R FOG
$$

NCZ011-015-027-028-043-044-047-080-103-271200-
NORTHEASTERN NORTH CAROLINA

CITY           SKY/WX    TMP DP  RH WIND       PRES   REMARKS
ROCKY MT-WILSO FOG       25  23  92 CALM      30.26R VSB 1/2
GREENVILLE     FOG       28  28 100 CALM      30.26R VSB<1/4
WASHINGTON     CLOUDY    29  28  96 CALM      30.26R FOG
ELIZABETH CITY PTCLDY    27  25  92 NW5       30.26R WCI  22
MANTEO         CLOUDY    32  28  86 N8        30.25R WCI  25
CAPE HATTERAS  CLOUDY    34  31  88 VRB6      30.23R WCI  29
$$

NCZ078-087-090-091-093-098-101-271200-
SOUTHEASTERN NORTH CAROLINA

CITY           SKY/WX    TMP DP  RH WIND       PRES   REMARKS
LUMBERTON      MOCLDY    31  28  89 CALM      30.26R FOG
GOLDSBORO      PTCLDY    29  29  99 CALM      30.23R FOG
KENANSVILLE    CLOUDY    30  30  99 CALM      30.26R FOG
NEW BERN       CLOUDY    32  29  88 N3        30.26R
CHERRY POINT   CLOUDY    33  28  81 N7        30.26R WCI  27
BEAUFORT       CLOUDY    32  28  85 N6        30.26R WCI  26
JACKSONVILLE   CLOUDY    33  30  88 N5        30.26R WCI  29
WILMINGTON     CLOUDY    33  31  92 N5        30.26R FOG     WCI  29
$$




USA.gov is the U.S. government's official web portal to all federal, state and local government web resources and services.